Regional Weather Roundup
Issued by NWS

Home | Current Version | Previous Version | Graphics & Text | Print | Product List | Glossary On
Versions: 1 2 3 4 5 6 7 8 9 10 11 12 13 14 15 16 17 18 19 20 21 22 23 24 25 26 27 28 29 30 31 32 33 34 35 36 37 38 39 40 41 42 43 44 45 46 47 48 49 50
086
ASUS43 KLMK 211810
RWRKY
KENTUCKY REGIONAL WEATHER ROUNDUP
NATIONAL WEATHER SERVICE LOUISVILLE KY
100 PM EST SAT JAN 21 2017

NOTE "FAIR" INDICATES FEW OR NO CLOUDS BELOW 12,000 FEET
WITH NO SIGNIFICANT WEATHER AND/OR OBSTRUCTIONS TO VISIBILITY.

KYZ001>023-026-027-061>063-070>075-211900-
WESTERN AND SOUTH CENTRAL KENTUCKY

CITY           SKY/WX    TMP DP  RH WIND       PRES   REMARKS
PADUCAH        SUNNY     69  50  50 SW18G24   29.62F
HENDERSON      MOSUNNY   66  54  63 SW18G25   29.62F
OWENSBORO      CLOUDY    63  55  75 SW14      29.64F
HOPKINSVILLE   CLOUDY    68  53  59 SW12      29.65F
BOWLING GREEN  CLOUDY    65  55  70 SW9       29.69F
GLASGOW        CLOUDY    65  53  66 SW8       29.69F
$$

KYZ024-025-028>034-038-045-046-053-211900-
NORTH CENTRAL KENTUCKY

CITY           SKY/WX    TMP DP  RH WIND       PRES   REMARKS
LOUISVILLE/SDF CLOUDY    65  53  65 S10       29.64F
LOUISVILLE/LOU CLOUDY    64  54  69 S9        29.65F
FORT KNOX      CLOUDY    63  55  76 S9        29.64F
$$

KYZ035>037-039>044-047>052-055>060-089>105-211900-
NORTHEAST KENTUCKY

CITY           SKY/WX    TMP DP  RH WIND       PRES   REMARKS
LEXINGTON      CLOUDY    62  53  72 S13       29.69F
COVINGTON      CLOUDY    61  53  75 S12       29.65F
FRANKFORT      CLOUDY    63  52  67 S8        29.66F
$$

KYZ054-064>069-076>088-106>120-211900-
SOUTHEAST KENTUCKY

CITY           SKY/WX    TMP DP  RH WIND       PRES   REMARKS
JACKSON        CLOUDY    60  52  74 S3        29.74F
LONDON         LGT RAIN  61  50  67 S9        29.74F
SOMERSET       CLOUDY    61  50  67 S10       29.73F
MIDDLESBORO    CLOUDY    56  56 100 CALM      29.79S
MONTICELLO     CLOUDY    63  49  60 SE12G22   29.71F
$$





USA.gov is the U.S. government's official web portal to all federal, state and local government web resources and services.